QPF
0.00 0.00 0.00 0.00 0.00 0.00 0.00 0.00 0.00 0.00 0.01 0.00 0.00 0.00 0.00 0.00 0.00 0.00 0.00 0.00 0.00 0.00 0.00 0.00 0.00 0.00 0.00 0.00 0.00 0.00 0.00 0.00
0.00 0.00 0.00 0.00 0.00 0.00 0.00 0.00 0.00 0.00 0.01 0.02 0.01 0.00 0.00 0.00 0.00 0.00 0.00 0.00 0.00 0.00 0.00 0.00 0.00 0.00 0.00 0.00 0.00 0.00 0.00 0.00
0.00 0.00 0.00 0.00 0.00 0.00 0.00 0.00 0.00 0.00 0.01 0.06 0.05 0.02 0.01 0.00 0.00 0.00 0.00 0.00 0.00 0.00 0.00 0.00 0.00 0.00 0.00 0.00 0.00 0.00 0.00 0.00
0.00 0.00 0.00 0.00 0.00 0.00 0.00 0.00 0.00 0.00 0.01 0.04 0.04 0.02 0.01 0.00 0.00 0.00 0.00 0.00 0.00 0.00 0.00 0.00 0.00 0.00 0.00 0.00 0.00 0.00 0.00 0.00
0.00 0.00 0.00 0.00 0.00 0.00 0.00 0.00 0.00 0.00 0.00 0.00 0.02 0.02 0.02 0.02 0.01 0.00 0.00 0.00 0.00 0.00 0.00 0.00 0.00 0.00 0.00 0.00 0.00 0.00 0.00 0.00
0.00 0.00 0.00 0.00 0.00 0.00 0.00 0.00 0.00 0.00 0.00 0.00 0.00 0.01 0.03 0.02 0.01 0.00 0.00 0.00 0.00 0.00 0.00 0.00 0.00 0.00 0.00 0.00 0.00 0.00 0.00 0.00
0.00 0.00 0.00 0.00 0.00 0.00 0.00 0.00 0.00 0.00 0.00 0.00 0.00 0.00 0.01 0.03 0.02 0.01 0.01 0.00 0.00 0.00 0.00 0.00 0.00 0.00 0.00 0.00 0.00 0.00 0.00 0.00
0.00 0.00 0.00 0.00 0.00 0.00 0.00 0.00 0.00 0.00 0.00 0.00 0.00 0.00 0.01 0.03 0.06 0.05 0.02 0.01 0.00 0.00 0.00 0.00 0.00 0.00 0.00 0.00 0.00 0.00 0.00 0.00
0.00 0.00 0.00 0.00 0.00 0.00 0.00 0.00 0.00 0.00 0.00 0.00 0.00 0.00 0.00 0.02 0.04 0.07 0.06 0.03 0.01 0.00 0.00 0.00 0.00 0.00 0.00 0.00 0.00 0.00 0.00 0.00
0.00 0.00 0.00 0.00 0.00 0.00 0.00 0.00 0.00 0.00 0.00 0.00 0.00 0.00 0.00 0.01 0.05 0.06 0.05 0.03 0.01 0.00 0.00 0.00 0.00 0.00 0.00 0.00 0.00 0.00 0.00 0.00
0.00 0.00 0.00 0.00 0.00 0.00 0.00 0.00 0.00 0.00 0.00 0.00 0.00 0.00 0.00 0.02 0.03 0.05 0.05 0.04 0.02 0.00 0.00 0.00 0.00 0.00 0.00 0.00 0.00 0.00 0.00 0.00
0.00 0.00 0.00 0.00 0.00 0.00 0.00 0.00 0.00 0.00 0.00 0.00 0.00 0.00 0.01 0.01 0.02 0.04 0.04 0.03 0.02 0.01 0.01 0.00 0.00 0.00 0.00 0.00 0.00 0.00 0.00 0.00
0.00 0.00 0.00 0.00 0.00 0.00 0.00 0.01 0.00 0.00 0.00 0.00 0.00 0.01 0.01 0.03 0.03 0.03 0.04 0.03 0.03 0.01 0.00 0.00 0.00 0.00 0.00 0.00 0.00 0.00 0.00 0.00
0.00 0.00 0.00 0.00 0.00 0.00 0.01 0.03 0.04 0.00 0.00 0.00 0.00 0.01 0.01 0.02 0.03 0.06 0.03 0.02 0.01 0.00 0.00 0.00 0.00 0.00 0.00 0.00 0.00 0.00 0.00 0.00
0.00 0.00 0.00 0.00 0.02 0.02 0.04 0.02 0.00 0.00 0.00 0.00 0.01 0.01 0.02 0.01 0.02 0.01 0.01 0.00 0.00 0.00 0.00 0.00 0.00 0.00 0.00 0.00 0.00 0.00 0.00 0.00
0.00 0.00 0.00 0.00 0.03 0.11 0.10 0.05 0.01 0.00 0.00 0.00 0.00 0.01 0.01 0.01 0.01 0.00 0.00 0.00 0.00 0.00 0.00 0.00 0.00 0.00 0.00 0.00 0.00 0.00 0.00 0.00
0.00 0.01 0.04 0.07 0.10 0.12 0.05 0.01 0.00 0.00 0.00 0.00 0.00 0.00 0.00 0.00 0.00 0.00 0.00 0.00 0.00 0.00 0.00 0.00 0.00 0.00 0.00 0.00 0.00 0.00 0.00 0.00
0.00 0.01 0.01 0.00 0.01 0.02 0.02 0.00 0.00 0.00 0.00 0.00 0.00 0.00 0.00 0.00 0.00 0.00 0.00 0.00 0.00 0.00 0.00 0.00 0.00 0.00 0.00 0.00 0.00 0.00 0.00 0.00
0.00 0.00 0.00 0.00 0.00 0.02 0.01 0.00 0.00 0.00 0.00 0.00 0.00 0.00 0.00 0.00 0.00 0.00 0.00 0.00 0.00 0.00 0.00 0.00 0.00 0.00 0.00 0.00 0.00 0.00 0.00 0.00
MSLP
997.29 997.87 998.96 1000.03 1001.23 1002.91 1004.26 1005.33 1006.53 1007.31 1008.07 1008.95 1009.54 1009.93 1010.71 1010.92 1011.54 1011.97 1012.86 1013.19 1013.92 1014.08 1014.52 1015.21 1015.95 1016.30 1016.75 1017.38 1018.29 1018.80 1019.05 1020.23
997.35 997.41 997.89 999.15 1000.56 1002.28 1003.55 1004.66 1005.83 1006.91 1007.61 1008.27 1008.89 1009.36 1010.26 1010.76 1011.15 1011.50 1012.23 1012.50 1013.21 1013.52 1013.76 1014.76 1015.33 1015.53 1016.02 1017.07 1017.97 1018.94 1019.23 1019.61
996.10 997.04 997.45 998.60 999.80 1001.30 1002.83 1004.05 1005.14 1006.21 1007.06 1007.49 1008.04 1008.12 1008.96 1009.51 1010.32 1011.00 1011.84 1012.06 1012.77 1013.06 1013.20 1014.02 1014.32 1015.11 1015.79 1016.58 1017.21 1018.37 1019.31 1019.65
997.01 997.44 998.45 999.18 999.84 1000.59 1002.30 1003.45 1004.42 1005.40 1006.20 1007.11 1007.44 1007.84 1008.39 1008.49 1009.10 1010.19 1011.10 1011.78 1012.35 1012.52 1012.71 1013.52 1014.00 1014.43 1015.29 1015.91 1016.95 1017.54 1018.77 1018.84
998.40 998.49 998.97 999.55 999.73 1000.42 1001.52 1002.74 1003.77 1004.74 1005.48 1006.09 1006.37 1006.64 1006.83 1007.01 1007.77 1008.84 1009.82 1010.91 1011.73 1012.28 1012.86 1013.23 1013.87 1014.02 1014.50 1015.55 1016.59 1017.11 1017.86 1018.40
999.43 999.59 999.67 999.66 999.64 999.93 1000.68 1001.81 1003.30 1004.22 1004.94 1005.62 1005.61 1005.82 1006.09 1006.32 1006.96 1008.06 1009.10 1010.34 1011.11 1011.81 1012.63 1013.04 1013.98 1013.90 1014.44 1014.96 1015.74 1016.63 1017.03 1017.45
1000.12 1000.57 1000.91 1000.74 1000.49 1000.49 1000.30 1001.04 1002.71 1003.83 1004.55 1005.13 1005.18 1005.32 1005.65 1005.99 1006.35 1007.01 1008.02 1009.22 1010.24 1011.04 1011.76 1012.49 1013.19 1013.91 1014.00 1014.51 1015.25 1016.04 1016.68 1017.08
1001.25 1001.40 1001.54 1001.41 1001.49 1001.37 1001.15 1001.43 1002.06 1003.68 1004.39 1004.90 1005.24 1005.45 1005.65 1005.44 1005.73 1006.41 1007.39 1008.26 1008.95 1009.95 1010.90 1011.59 1012.48 1013.01 1013.92 1014.28 1014.70 1015.65 1016.27 1016.67
1001.46 1001.61 1001.54 1001.39 1001.34 1001.24 1001.44 1001.64 1002.36 1003.39 1004.07 1004.62 1005.04 1005.54 1005.76 1005.75 1005.82 1006.18 1007.08 1008.02 1008.55 1009.42 1010.14 1011.04 1011.83 1012.48 1013.39 1014.15 1014.53 1014.96 1015.74 1016.43
1001.26 1001.44 1001.42 1001.08 1001.09 1001.37 1001.36 1001.50 1001.82 1002.66 1003.54 1004.34 1004.90 1005.32 1005.54 1005.80 1006.16 1006.57 1007.33 1007.72 1008.31 1009.29 1009.95 1010.73 1011.74 1012.51 1013.14 1013.97 1014.63 1014.94 1015.28 1016.98
1001.69 1001.67 1001.28 1000.87 1000.48 1000.60 1000.68 1001.03 1001.36 1001.67 1002.46 1003.53 1004.40 1004.96 1005.41 1005.88 1006.32 1006.80 1007.39 1008.14 1008.31 1009.01 1010.11 1010.63 1011.65 1012.65 1013.39 1014.25 1014.81 1015.00 1015.33 1017.03
1001.31 1000.97 1000.63 999.88 999.41 999.46 999.85 1000.18 1000.77 1001.00 1001.74 1002.56 1003.80 1004.62 1005.34 1005.90 1006.41 1006.85 1007.22 1007.95 1008.57 1008.96 1010.26 1010.88 1011.97 1012.75 1013.43 1013.98 1014.85 1015.10 1015.53 1016.78
1000.46 999.96 999.19 998.24 998.06 997.97 998.10 998.43 998.87 1000.64 1001.22 1002.16 1003.30 1004.32 1005.02 1005.77 1006.50 1006.94 1007.47 1007.86 1008.18 1009.65 1010.22 1010.95 1012.33 1013.05 1013.77 1014.22 1014.30 1015.41 1016.05 1016.94
999.93 999.01 997.85 997.34 997.07 997.43 997.87 998.37 998.69 1000.53 1001.46 1002.09 1003.10 1004.13 1004.99 1005.40 1006.11 1006.87 1007.85 1008.46 1008.58 1009.69 1010.61 1011.50 1012.48 1013.72 1014.26 1014.42 1015.43 1015.95 1016.31 1017.78
998.77 998.00 997.49 996.90 996.96 997.35 997.93 998.43 999.47 1000.77 1001.89 1002.33 1003.31 1003.95 1004.78 1005.46 1006.17 1006.94 1007.62 1008.81 1009.27 1010.00 1011.04 1012.51 1013.48 1014.13 1014.38 1015.14 1016.60 1016.76 1017.66 1019.25
998.90 999.15 998.46 997.66 997.71 998.09 998.31 999.13 1000.39 1001.50 1002.01 1002.52 1003.08 1003.90 1004.92 1005.64 1006.17 1007.04 1008.07 1008.99 1009.96 1009.83 1011.99 1013.15 1014.10 1014.23 1015.60 1016.40 1016.94 1017.70 1019.44 1019.17
999.90 999.89 1000.02 998.96 998.61 999.01 999.49 1000.23 1000.80 1001.32 1001.61 1002.28 1003.14 1003.97 1005.02 1005.79 1006.35 1007.43 1008.38 1009.11 1009.85 1010.83 1012.43 1013.33 1013.99 1015.53 1015.88 1016.59 1017.29 1018.45 1018.48 1018.70
1000.33 1000.08 999.71 999.55 999.44 999.31 999.16 1000.00 1001.34 1001.94 1002.23 1002.72 1003.44 1004.28 1005.06 1005.70 1006.53 1007.60 1008.36 1009.30 1010.21 1011.24 1012.66 1013.62 1014.55 1015.77 1015.94 1016.48 1016.92 1017.31 1017.56 1018.32
1000.14 999.78 999.67 999.78 999.36 998.74 998.98 1000.56 1001.51 1002.02 1002.46 1003.08 1003.86 1004.44 1005.24 1006.01 1006.73 1007.68 1008.44 1009.40 1010.36 1011.52 1012.65 1013.53 1014.46 1015.54 1015.88 1016.36 1016.48 1016.80 1017.35 1018.25
Thickness
5718 5716 5711 5705 5697 5684 5675 5668 5658 5654 5648 5641 5636 5635 5630 5630 5625 5623 5616 5615 5610 5608 5605 5600 5593 5591 5588 5583 5575 5572 5570 5559
5708 5710 5708 5700 5690 5677 5669 5662 5654 5646 5642 5637 5632 5630 5624 5621 5618 5616 5611 5611 5606 5602 5602 5595 5588 5587 5584 5576 5569 5561 5559 5557
5705 5701 5701 5694 5685 5676 5665 5656 5649 5641 5636 5634 5629 5629 5623 5620 5614 5610 5603 5603 5598 5596 5597 5591 5589 5582 5578 5572 5567 5557 5550 5549
5686 5686 5680 5676 5673 5669 5657 5650 5644 5638 5634 5627 5623 5620 5615 5617 5614 5606 5599 5594 5590 5589 5589 5585 5582 5580 5573 5569 5561 5557 5546 5545
5664 5665 5664 5661 5662 5660 5653 5643 5638 5632 5628 5624 5621 5618 5616 5619 5612 5604 5597 5590 5585 5581 5579 5577 5574 5575 5572 5563 5555 5552 5547 5542
5640 5641 5644 5649 5651 5650 5646 5640 5629 5623 5619 5614 5616 5614 5611 5611 5605 5597 5591 5583 5579 5575 5570 5568 5562 5566 5563 5560 5553 5545 5544 5542
5624 5622 5621 5622 5627 5629 5633 5629 5618 5610 5607 5603 5605 5605 5603 5600 5597 5594 5588 5581 5574 5571 5567 5564 5559 5555 5557 5553 5548 5542 5537 5535
5599 5599 5600 5602 5601 5603 5607 5607 5606 5593 5588 5588 5588 5589 5588 5592 5591 5587 5580 5576 5573 5567 5562 5560 5555 5552 5546 5545 5543 5536 5531 5528
5582 5582 5581 5582 5583 5586 5585 5584 5581 5577 5573 5570 5568 5567 5567 5572 5576 5576 5567 5562 5561 5558 5555 5552 5548 5546 5540 5535 5533 5530 5524 5519
5567 5562 5559 5561 5560 5561 5562 5562 5560 5555 5552 5547 5544 5543 5545 5550 5552 5553 5549 5547 5547 5543 5541 5540 5536 5532 5529 5524 5520 5519 5518 5501
5539 5537 5539 5542 5541 5538 5539 5541 5537 5534 5531 5527 5521 5519 5522 5523 5526 5528 5528 5528 5529 5528 5525 5526 5522 5517 5514 5510 5506 5507 5505 5492
5518 5517 5518 5522 5523 5517 5516 5516 5511 5512 5508 5505 5499 5499 5497 5500 5504 5507 5509 5510 5513 5512 5508 5508 5505 5503 5500 5499 5494 5492 5491 5483
5503 5504 5506 5510 5508 5509 5504 5504 5508 5488 5488 5486 5481 5477 5477 5477 5479 5484 5486 5494 5497 5490 5492 5494 5488 5486 5484 5484 5487 5476 5476 5469
5493 5500 5507 5508 5507 5502 5496 5490 5490 5471 5464 5464 5461 5456 5457 5461 5464 5463 5466 5466 5475 5474 5474 5474 5472 5465 5466 5467 5465 5462 5462 5451
5500 5503 5504 5505 5500 5494 5488 5482 5472 5460 5449 5444 5440 5443 5439 5440 5444 5449 5454 5448 5446 5454 5454 5448 5446 5441 5449 5449 5437 5440 5438 5427
5493 5486 5488 5491 5486 5482 5478 5469 5453 5443 5439 5435 5434 5431 5427 5427 5430 5434 5436 5437 5434 5446 5430 5428 5429 5435 5429 5428 5424 5423 5413 5425
5480 5473 5457 5472 5472 5466 5460 5452 5443 5437 5435 5431 5426 5422 5417 5415 5419 5417 5421 5424 5425 5424 5415 5415 5417 5407 5415 5410 5415 5411 5419 5423
5469 5466 5467 5463 5461 5462 5461 5449 5431 5424 5423 5420 5417 5411 5410 5408 5410 5406 5407 5409 5409 5407 5401 5402 5405 5399 5406 5410 5413 5416 5420 5420
5467 5469 5466 5460 5460 5466 5462 5439 5427 5421 5417 5411 5407 5405 5401 5398 5398 5400 5403 5402 5402 5399 5400 5402 5400 5397 5404 5406 5410 5415 5416 5413